QTR7Q OTHH-OPKC

Flight info

Callsign QTR7Q
Flight time 1h 55m
Altitude 39000
Route KUPRO N300 GIDOB DCT TONVO A777 NADSO B524 ALPOR G216 LAKIV
Aircraft A35K/H-SDE2E3GHIJ3J4J5LM1ORWXY/LB1D1

Departure

Time 2026-05-05 13:31
Airport Hamad International Airport (OTHH)

Arrival

Time 2026-05-05 15:26
Airport Jinnah International Airport (OPKC)
Time Latitude Longitude Altitude Speed Heading
2026-05-05 12:39 25.26035 51.60850 36 ft 0 kts 128°
2026-05-05 13:16 25.26037 51.60848 36 ft 2 kts 128°
2026-05-05 13:16 25.26053 51.60825 33 ft 4 kts 128°
2026-05-05 13:16 25.26070 51.60802 33 ft 4 kts 128°
2026-05-05 13:16 25.26085 51.60781 33 ft 4 kts 127°
2026-05-05 13:17 25.26095 51.60757 35 ft 4 kts 79°
2026-05-05 13:17 25.26082 51.60736 33 ft 4 kts 24°
2026-05-05 13:17 25.26058 51.60731 35 ft 4 kts 342°
2026-05-05 13:17 25.26033 51.60742 32 ft 4 kts 338°
2026-05-05 13:18 25.26021 51.60747 34 ft 0 kts 338°
2026-05-05 13:20 25.26034 51.60741 32 ft 3 kts 338°
2026-05-05 13:20 25.26053 51.60733 35 ft 6 kts 338°
2026-05-05 13:21 25.26086 51.60700 33 ft 7 kts 295°
2026-05-05 13:21 25.26088 51.60621 36 ft 9 kts 292°
2026-05-05 13:21 25.26142 51.60586 36 ft 10 kts 338°
2026-05-05 13:21 25.26246 51.60540 36 ft 22 kts 338°
2026-05-05 13:22 25.26352 51.60493 36 ft 25 kts 338°
2026-05-05 13:22 25.26517 51.60420 35 ft 26 kts 338°
2026-05-05 13:22 25.26687 51.60345 35 ft 26 kts 338°
2026-05-05 13:22 25.26830 51.60282 35 ft 18 kts 338°
2026-05-05 13:23 25.26931 51.60238 35 ft 11 kts 342°
2026-05-05 13:23 25.26983 51.60276 35 ft 10 kts 65°
2026-05-05 13:23 25.27015 51.60363 36 ft 17 kts 68°
2026-05-05 13:23 25.27068 51.60508 36 ft 23 kts 68°
2026-05-05 13:24 25.27129 51.60675 36 ft 24 kts 68°
2026-05-05 13:24 25.27195 51.60853 36 ft 26 kts 68°
2026-05-05 13:24 25.27264 51.61041 36 ft 27 kts 68°
2026-05-05 13:24 25.27329 51.61221 36 ft 21 kts 68°
2026-05-05 13:25 25.27383 51.61369 36 ft 18 kts 67°
2026-05-05 13:25 25.27425 51.61483 35 ft 7 kts 69°
2026-05-05 13:25 25.27415 51.61527 35 ft 7 kts 122°
2026-05-05 13:25 25.27365 51.61566 35 ft 12 kts 155°
2026-05-05 13:26 25.27249 51.61617 35 ft 23 kts 158°
2026-05-05 13:26 25.27083 51.61690 35 ft 27 kts 158°
2026-05-05 13:26 25.26904 51.61768 35 ft 28 kts 158°
2026-05-05 13:26 25.26726 51.61847 35 ft 28 kts 158°
2026-05-05 13:27 25.26539 51.61930 35 ft 30 kts 158°
2026-05-05 13:27 25.26343 51.62016 36 ft 31 kts 158°
2026-05-05 13:27 25.26170 51.62093 36 ft 24 kts 158°
2026-05-05 13:27 25.26007 51.62165 36 ft 25 kts 158°
2026-05-05 13:28 25.25842 51.62237 36 ft 24 kts 158°
2026-05-05 13:28 25.25697 51.62301 36 ft 21 kts 158°
2026-05-05 13:28 25.25585 51.62350 35 ft 15 kts 158°
2026-05-05 13:28 25.25498 51.62393 35 ft 9 kts 143°
2026-05-05 13:29 25.25482 51.62458 35 ft 10 kts 79°
2026-05-05 13:29 25.25513 51.62550 34 ft 15 kts 68°
2026-05-05 13:29 25.25548 51.62641 33 ft 9 kts 63°
2026-05-05 13:29 25.25595 51.62655 33 ft 8 kts 345°
2026-05-05 13:30 25.25609 51.62649 33 ft 0 kts 340°
2026-05-05 13:30 25.25824 51.62554 32 ft 72 kts 337°
2026-05-05 13:30 25.26510 51.62253 33 ft 139 kts 339°
2026-05-05 13:30 25.27516 51.61769 405 ft 163 kts 334°
2026-05-05 13:31 25.28539 51.61247 1125 ft 165 kts 334°
2026-05-05 13:31 25.29638 51.60680 1511 ft 185 kts 336°
2026-05-05 13:31 25.30907 51.60138 1804 ft 205 kts 340°
2026-05-05 13:31 25.32274 51.59585 2337 ft 211 kts 340°
2026-05-05 13:32 25.33688 51.59092 2900 ft 218 kts 353°
2026-05-05 13:32 25.35165 51.59478 3401 ft 225 kts 33°
2026-05-05 13:32 25.36128 51.60804 3850 ft 227 kts 70°
2026-05-05 13:32 25.36180 51.62552 4472 ft 231 kts 97°
2026-05-05 13:33 25.35998 51.64316 5200 ft 231 kts 88°
2026-05-05 13:33 25.36095 51.66097 5862 ft 234 kts 78°
2026-05-05 13:33 25.36434 51.67866 6505 ft 237 kts 72°
2026-05-05 13:33 25.36837 51.69651 7106 ft 243 kts 79°
2026-05-05 13:34 25.36766 51.71558 7615 ft 258 kts 98°
2026-05-05 13:34 25.36364 51.73581 7919 ft 280 kts 102°
2026-05-05 13:34 25.35896 51.75703 8381 ft 294 kts 102°
2026-05-05 13:34 25.35420 51.77928 9058 ft 301 kts 101°
2026-05-05 13:35 25.34949 51.80203 9769 ft 307 kts 101°
2026-05-05 13:35 25.34477 51.82533 10366 ft 317 kts 100°
2026-05-05 13:35 25.33989 51.84984 10701 ft 337 kts 100°
2026-05-05 13:35 25.33478 51.87584 11017 ft 355 kts 100°
2026-05-05 13:36 25.32936 51.90313 11379 ft 370 kts 100°
2026-05-05 13:36 25.32372 51.93127 11937 ft 378 kts 100°
2026-05-05 13:36 25.31799 51.95976 12615 ft 381 kts 100°
2026-05-05 13:36 25.31222 51.98845 13322 ft 385 kts 100°
2026-05-05 13:37 25.30639 52.01750 13979 ft 388 kts 100°
2026-05-05 13:37 25.30053 52.04675 14594 ft 392 kts 101°
2026-05-05 13:37 25.29461 52.07623 15226 ft 395 kts 101°
2026-05-05 13:37 25.28745 52.10571 15829 ft 399 kts 106°
2026-05-05 13:38 25.27853 52.13492 16427 ft 403 kts 108°
2026-05-05 13:38 25.26922 52.16427 17036 ft 407 kts 109°
2026-05-05 13:38 25.25983 52.19386 17654 ft 410 kts 109°
2026-05-05 13:38 25.25035 52.22379 18238 ft 414 kts 109°
2026-05-05 13:39 25.24095 52.25355 18755 ft 418 kts 109°
2026-05-05 13:39 25.23121 52.28436 19309 ft 422 kts 109°
2026-05-05 13:39 25.22161 52.31473 19822 ft 427 kts 109°
2026-05-05 13:39 25.21178 52.34581 20374 ft 430 kts 109°
2026-05-05 13:40 25.20187 52.37711 20944 ft 434 kts 109°
2026-05-05 13:40 25.19186 52.40872 21502 ft 438 kts 109°
2026-05-05 13:40 25.18182 52.44055 22056 ft 441 kts 109°
2026-05-05 13:40 25.17163 52.47268 22632 ft 445 kts 109°
2026-05-05 13:41 25.16137 52.50503 23162 ft 449 kts 109°
2026-05-05 13:41 25.15099 52.53771 23656 ft 453 kts 109°
2026-05-05 13:41 25.14050 52.57059 24102 ft 457 kts 110°
2026-05-05 13:41 25.12837 52.60320 24528 ft 461 kts 115°
2026-05-05 13:42 25.11480 52.63540 24982 ft 465 kts 116°
2026-05-05 13:42 25.10040 52.66759 25428 ft 470 kts 117°
2026-05-05 13:42 25.08556 52.69988 25887 ft 474 kts 118°
2026-05-05 13:42 25.07053 52.73243 26329 ft 479 kts 118°
2026-05-05 13:43 25.05753 52.76645 26780 ft 485 kts 109°
2026-05-05 13:43 25.04761 52.80224 27197 ft 491 kts 107°
2026-05-05 13:43 25.03863 52.83878 27653 ft 495 kts 105°
2026-05-05 13:43 25.03012 52.87572 28105 ft 499 kts 105°
2026-05-05 13:44 25.02175 52.91304 28517 ft 504 kts 105°
2026-05-05 13:44 25.01337 52.95072 28919 ft 509 kts 105°
2026-05-05 13:44 25.00488 52.98872 29319 ft 513 kts 105°
2026-05-05 13:44 24.99626 53.02703 29738 ft 517 kts 105°
2026-05-05 13:45 24.98752 53.06567 30045 ft 522 kts 105°
2026-05-05 13:45 24.97866 53.10459 30390 ft 525 kts 105°
2026-05-05 13:45 24.96967 53.14378 30747 ft 528 kts 105°
2026-05-05 13:45 24.96060 53.18310 31090 ft 531 kts 105°
2026-05-05 13:46 24.95147 53.22264 31419 ft 534 kts 106°
2026-05-05 13:46 24.94227 53.26238 31742 ft 537 kts 106°
2026-05-05 13:46 24.93303 53.30232 32040 ft 540 kts 105°
2026-05-05 13:46 24.92387 53.34188 32412 ft 541 kts 105°
2026-05-05 13:47 24.91455 53.38212 32717 ft 543 kts 105°
2026-05-05 13:47 24.90518 53.42257 32978 ft 546 kts 105°
2026-05-05 13:47 24.89517 53.46293 33359 ft 545 kts 108°
2026-05-05 13:47 24.88430 53.50288 33782 ft 544 kts 109°
2026-05-05 13:48 24.87308 53.54267 34123 ft 544 kts 109°
2026-05-05 13:48 24.86181 53.58236 34458 ft 543 kts 109°
2026-05-05 13:48 24.85063 53.62202 34800 ft 542 kts 109°
2026-05-05 13:48 24.83956 53.66166 35149 ft 541 kts 109°
2026-05-05 13:49 24.82859 53.70126 35485 ft 541 kts 109°
2026-05-05 13:49 24.81768 53.74083 35792 ft 540 kts 109°
2026-05-05 13:49 24.80680 53.78038 36117 ft 539 kts 109°
2026-05-05 13:49 24.79597 53.81969 36525 ft 536 kts 109°
2026-05-05 13:50 24.78516 53.85891 36851 ft 535 kts 109°
2026-05-05 13:50 24.77436 53.89802 37129 ft 534 kts 109°
2026-05-05 13:50 24.76356 53.93712 37416 ft 534 kts 109°
2026-05-05 13:50 24.75514 53.97696 37686 ft 536 kts 100°
2026-05-05 13:51 24.75229 54.01791 37947 ft 538 kts 89°
2026-05-05 13:51 24.75509 54.05899 38131 ft 540 kts 83°
2026-05-05 13:51 24.75997 54.09998 38347 ft 540 kts 81°
2026-05-05 13:51 24.76570 54.14082 38574 ft 540 kts 81°
2026-05-05 13:52 24.77171 54.18159 38720 ft 541 kts 81°
2026-05-05 13:52 24.77764 54.22245 38748 ft 541 kts 81°
2026-05-05 13:52 24.78918 54.30417 38747 ft 541 kts 82°
2026-05-05 13:53 24.80055 54.38599 38747 ft 541 kts 82°
2026-05-05 13:53 24.81189 54.46783 38746 ft 541 kts 82°
2026-05-05 13:54 24.82313 54.54910 38746 ft 541 kts 82°
2026-05-05 13:54 24.83442 54.63104 38746 ft 541 kts 82°
2026-05-05 13:55 24.84565 54.71291 38747 ft 541 kts 82°
2026-05-05 13:55 24.85686 54.79493 38747 ft 541 kts 82°
2026-05-05 13:56 24.86801 54.87687 38753 ft 542 kts 82°
2026-05-05 13:56 24.87911 54.95881 38761 ft 540 kts 82°
2026-05-05 13:57 24.89014 55.04058 38772 ft 539 kts 82°
2026-05-05 13:57 24.90112 55.12226 38774 ft 539 kts 82°
2026-05-05 13:58 24.91205 55.20398 38774 ft 539 kts 82°
2026-05-05 13:58 24.92295 55.28574 38776 ft 539 kts 82°
2026-05-05 13:59 24.93922 55.40859 38740 ft 540 kts 82°
2026-05-05 14:00 24.95358 55.51761 38741 ft 541 kts 82°
2026-05-05 14:00 24.96615 55.61352 38741 ft 541 kts 82°
2026-05-05 14:01 24.97676 55.69495 38743 ft 541 kts 82°
2026-05-05 14:01 24.98741 55.77699 38744 ft 541 kts 82°
2026-05-05 14:02 24.99802 55.85905 38746 ft 541 kts 82°
2026-05-05 14:02 25.00859 55.94120 38758 ft 541 kts 82°
2026-05-05 14:03 25.01910 56.02330 38759 ft 541 kts 82°
2026-05-05 14:03 25.02959 56.10551 38765 ft 541 kts 82°
2026-05-05 14:04 25.04003 56.18776 38770 ft 542 kts 82°
2026-05-05 14:04 25.05042 56.27005 38773 ft 542 kts 82°
2026-05-05 14:05 25.06077 56.35224 38773 ft 541 kts 82°
2026-05-05 14:05 25.07107 56.43447 38773 ft 541 kts 82°
2026-05-05 14:06 25.07957 56.51692 38772 ft 541 kts 90°
2026-05-05 14:06 25.07737 56.55823 38770 ft 538 kts 101°
2026-05-05 14:06 25.07126 56.59889 38766 ft 538 kts 102°
2026-05-05 14:07 25.05642 56.67924 38758 ft 538 kts 104°
2026-05-05 14:07 25.04056 56.75965 38757 ft 536 kts 104°
2026-05-05 14:08 25.02486 56.84004 38757 ft 536 kts 104°
2026-05-05 14:08 25.00936 56.92040 38757 ft 536 kts 104°
2026-05-05 14:09 24.99387 57.00083 38757 ft 536 kts 104°
2026-05-05 14:09 24.97835 57.08125 38757 ft 536 kts 104°
2026-05-05 14:10 24.96276 57.16161 38760 ft 536 kts 104°
2026-05-05 14:10 24.94710 57.24208 38753 ft 536 kts 104°
2026-05-05 14:11 24.93144 57.32231 38757 ft 535 kts 104°
2026-05-05 14:11 24.91576 57.40244 38755 ft 535 kts 104°
2026-05-05 14:12 24.90005 57.48249 38760 ft 535 kts 104°
2026-05-05 14:12 24.88428 57.56258 38757 ft 535 kts 104°
2026-05-05 14:13 24.86847 57.64264 38757 ft 535 kts 104°
2026-05-05 14:13 24.85272 57.72216 38755 ft 536 kts 104°
2026-05-05 14:14 24.83680 57.80228 38755 ft 536 kts 104°
2026-05-05 14:14 24.82077 57.88243 38753 ft 535 kts 104°
2026-05-05 14:15 24.80454 57.96220 38750 ft 534 kts 104°
2026-05-05 14:15 24.79098 58.02857 38755 ft 535 kts 104°
2026-05-05 14:16 24.77466 58.10845 38751 ft 535 kts 104°
2026-05-05 14:16 24.75833 58.18825 38753 ft 535 kts 104°
2026-05-05 14:17 24.74194 58.26816 38752 ft 536 kts 104°
2026-05-05 14:17 24.72550 58.34805 38752 ft 536 kts 104°
2026-05-05 14:18 24.70901 58.42796 38752 ft 536 kts 104°
2026-05-05 14:18 24.69247 58.50787 38754 ft 536 kts 104°
2026-05-05 14:19 24.67588 58.58782 38758 ft 536 kts 104°
2026-05-05 14:19 24.65925 58.66772 38758 ft 536 kts 104°
2026-05-05 14:20 24.64257 58.74768 38757 ft 536 kts 104°
2026-05-05 14:20 24.62586 58.82753 38758 ft 536 kts 104°
2026-05-05 14:21 24.60909 58.90740 38760 ft 536 kts 104°
2026-05-05 14:21 24.59229 58.98723 38761 ft 536 kts 104°
2026-05-05 14:22 24.57545 59.06706 38757 ft 536 kts 104°
2026-05-05 14:22 24.55859 59.14674 38764 ft 535 kts 104°
2026-05-05 14:23 24.54183 59.22572 38765 ft 535 kts 104°
2026-05-05 14:23 24.52490 59.30529 38767 ft 535 kts 104°
2026-05-05 14:24 24.50792 59.38476 38766 ft 535 kts 104°
2026-05-05 14:24 24.49090 59.46424 38766 ft 535 kts 104°
2026-05-05 14:25 24.47385 59.54365 38772 ft 535 kts 104°
2026-05-05 14:25 24.45675 59.62310 38774 ft 535 kts 104°
2026-05-05 14:26 24.43959 59.70258 38769 ft 535 kts 104°
2026-05-05 14:26 24.42242 59.78193 38774 ft 533 kts 104°
2026-05-05 14:27 24.40524 59.86112 38777 ft 533 kts 104°
2026-05-05 14:27 24.38803 59.94022 38777 ft 533 kts 104°
2026-05-05 14:28 24.37076 60.01937 38777 ft 534 kts 104°
2026-05-05 14:28 24.35357 60.09797 38779 ft 534 kts 104°
2026-05-05 14:29 24.33625 60.17708 38785 ft 534 kts 104°
2026-05-05 14:29 24.31887 60.25617 38782 ft 534 kts 104°
2026-05-05 14:30 24.30143 60.33533 38783 ft 534 kts 104°
2026-05-05 14:30 24.28399 60.41431 38785 ft 532 kts 104°
2026-05-05 14:31 24.26654 60.49312 38785 ft 532 kts 104°
2026-05-05 14:31 24.24903 60.57197 38788 ft 532 kts 105°
2026-05-05 14:32 24.23150 60.65076 38787 ft 532 kts 105°
2026-05-05 14:32 24.21392 60.72956 38788 ft 532 kts 105°
2026-05-05 14:33 24.19632 60.80834 38791 ft 533 kts 105°
2026-05-05 14:33 24.17870 60.88714 38793 ft 533 kts 105°
2026-05-05 14:34 24.16101 60.96603 38789 ft 533 kts 105°
2026-05-05 14:34 24.14333 61.04472 38796 ft 532 kts 105°
2026-05-05 14:35 24.12560 61.12338 38793 ft 532 kts 105°
2026-05-05 14:35 24.10784 61.20196 38793 ft 532 kts 105°
2026-05-05 14:36 24.09010 61.28050 38795 ft 532 kts 104°
2026-05-05 14:36 24.08361 61.36094 38800 ft 532 kts 84°
2026-05-05 14:37 24.09304 61.44119 38799 ft 532 kts 80°
2026-05-05 14:37 24.10500 61.52069 38801 ft 533 kts 79°
2026-05-05 14:38 24.11716 61.60067 38801 ft 533 kts 79°
2026-05-05 14:38 24.12898 61.68074 38801 ft 533 kts 80°
2026-05-05 14:39 24.14061 61.76088 38801 ft 533 kts 80°
2026-05-05 14:39 24.15197 61.84097 38801 ft 533 kts 81°
2026-05-05 14:40 24.16277 61.92120 38807 ft 533 kts 81°
2026-05-05 14:40 24.17360 62.00156 38801 ft 533 kts 81°
2026-05-05 14:41 24.18442 62.08183 38807 ft 533 kts 81°
2026-05-05 14:41 24.19523 62.16221 38807 ft 533 kts 81°
2026-05-05 14:42 24.20599 62.24254 38804 ft 533 kts 81°
2026-05-05 14:42 24.21671 62.32293 38807 ft 533 kts 81°
2026-05-05 14:43 24.22739 62.40334 38810 ft 533 kts 81°
2026-05-05 14:43 24.23803 62.48379 38807 ft 533 kts 81°
2026-05-05 14:44 24.24863 62.56418 38807 ft 533 kts 81°
2026-05-05 14:44 24.25919 62.64466 38807 ft 534 kts 81°
2026-05-05 14:45 24.26970 62.72514 38807 ft 534 kts 81°
2026-05-05 14:45 24.28018 62.80567 38807 ft 534 kts 81°
2026-05-05 14:46 24.29054 62.88561 38807 ft 534 kts 81°
2026-05-05 14:46 24.30094 62.96622 38804 ft 534 kts 81°
2026-05-05 14:47 24.31130 63.04688 38801 ft 534 kts 81°
2026-05-05 14:47 24.32160 63.12743 38801 ft 534 kts 81°
2026-05-05 14:48 24.33113 63.20222 38804 ft 533 kts 81°
2026-05-05 14:48 24.34134 63.28271 38801 ft 533 kts 81°
2026-05-05 14:49 24.35151 63.36320 38804 ft 533 kts 81°
2026-05-05 14:49 24.36162 63.44364 38804 ft 533 kts 81°
2026-05-05 14:50 24.37170 63.52415 38801 ft 533 kts 81°
2026-05-05 14:50 24.38175 63.60475 38801 ft 533 kts 81°
2026-05-05 14:51 24.39175 63.68531 38799 ft 533 kts 81°
2026-05-05 14:51 24.40165 63.76545 38800 ft 533 kts 81°
2026-05-05 14:52 24.41158 63.84616 38796 ft 534 kts 81°
2026-05-05 14:52 24.42147 63.92687 38796 ft 534 kts 81°
2026-05-05 14:53 24.43132 64.00768 38796 ft 534 kts 81°
2026-05-05 14:53 24.44113 64.08846 38798 ft 534 kts 81°
2026-05-05 14:54 24.45089 64.16927 38799 ft 535 kts 81°
2026-05-05 14:54 24.46062 64.25013 38799 ft 535 kts 81°
2026-05-05 14:55 24.47031 64.33109 38799 ft 535 kts 81°
2026-05-05 14:55 24.47995 64.41201 38804 ft 535 kts 81°
2026-05-05 14:56 24.48955 64.49294 38813 ft 535 kts 81°
2026-05-05 14:56 24.49911 64.57390 38812 ft 535 kts 81°
2026-05-05 14:57 24.50863 64.65485 38810 ft 535 kts 81°
2026-05-05 14:57 24.51810 64.73582 38815 ft 535 kts 81°
2026-05-05 14:58 24.52753 64.81686 38818 ft 535 kts 81°
2026-05-05 14:58 24.53512 64.89813 38780 ft 535 kts 84°
2026-05-05 14:59 24.53805 64.93884 38560 ft 534 kts 84°
2026-05-05 14:59 24.54104 64.97946 38323 ft 534 kts 83°
2026-05-05 14:59 24.54412 65.02023 38057 ft 535 kts 83°
2026-05-05 14:59 24.54723 65.06094 37798 ft 536 kts 83°
2026-05-05 15:00 24.55037 65.10181 37538 ft 537 kts 83°
2026-05-05 15:00 24.55245 65.12882 37363 ft 537 kts 83°
2026-05-05 15:00 24.55662 65.18305 36996 ft 537 kts 83°
2026-05-05 15:00 24.55973 65.22375 36462 ft 532 kts 83°
2026-05-05 15:01 24.56282 65.26418 35813 ft 531 kts 83°
2026-05-05 15:01 24.56590 65.30450 35151 ft 530 kts 83°
2026-05-05 15:01 24.56897 65.34490 34403 ft 532 kts 83°
2026-05-05 15:01 24.57205 65.38548 33603 ft 534 kts 82°
2026-05-05 15:02 24.57513 65.42617 32777 ft 535 kts 82°
2026-05-05 15:02 24.57819 65.46687 31971 ft 535 kts 82°
2026-05-05 15:02 24.58122 65.50744 31452 ft 530 kts 82°
2026-05-05 15:02 24.58421 65.54757 30913 ft 525 kts 82°
2026-05-05 15:03 24.58716 65.58732 30366 ft 520 kts 82°
2026-05-05 15:03 24.59007 65.62673 29823 ft 516 kts 82°
2026-05-05 15:03 24.59296 65.66583 29232 ft 511 kts 82°
2026-05-05 15:03 24.59580 65.70447 28698 ft 504 kts 82°
2026-05-05 15:04 24.59860 65.74263 28173 ft 498 kts 82°
2026-05-05 15:04 24.60136 65.78039 27663 ft 492 kts 82°
2026-05-05 15:04 24.60407 65.81757 27145 ft 486 kts 82°
2026-05-05 15:04 24.60674 65.85435 26651 ft 480 kts 82°
2026-05-05 15:05 24.61196 65.92658 25654 ft 468 kts 82°
2026-05-05 15:05 24.61451 65.96205 25163 ft 463 kts 82°
2026-05-05 15:05 24.61702 65.99712 24675 ft 458 kts 82°
2026-05-05 15:06 24.61950 66.03178 24182 ft 453 kts 82°
2026-05-05 15:06 24.62194 66.06607 23688 ft 448 kts 82°
2026-05-05 15:06 24.62354 66.08855 23357 ft 444 kts 82°
2026-05-05 15:06 24.62592 66.12219 22817 ft 438 kts 82°
2026-05-05 15:07 24.62826 66.15533 22316 ft 431 kts 82°
2026-05-05 15:07 24.63055 66.18796 21834 ft 425 kts 82°
2026-05-05 15:07 24.63280 66.22005 21351 ft 418 kts 82°
2026-05-05 15:07 24.63501 66.25165 20883 ft 412 kts 82°
2026-05-05 15:08 24.63719 66.28283 20406 ft 406 kts 82°
2026-05-05 15:08 24.63933 66.31360 19935 ft 401 kts 82°
2026-05-05 15:08 24.64143 66.34397 19467 ft 396 kts 83°
2026-05-05 15:08 24.64351 66.37394 19009 ft 391 kts 83°
2026-05-05 15:09 24.64555 66.40357 18537 ft 387 kts 83°
2026-05-05 15:09 24.64757 66.43288 18081 ft 382 kts 83°
2026-05-05 15:09 24.64956 66.46189 17576 ft 379 kts 83°
2026-05-05 15:09 24.65152 66.49058 17122 ft 375 kts 83°
2026-05-05 15:10 24.65347 66.51914 16667 ft 373 kts 83°
2026-05-05 15:10 24.65537 66.54715 16235 ft 371 kts 83°
2026-05-05 15:10 24.65731 66.57567 15805 ft 368 kts 83°
2026-05-05 15:10 24.65921 66.60363 15391 ft 366 kts 83°
2026-05-05 15:11 24.66107 66.63111 14976 ft 364 kts 83°
2026-05-05 15:11 24.66293 66.65881 14543 ft 362 kts 83°
2026-05-05 15:11 24.66478 66.68633 14118 ft 360 kts 83°
2026-05-05 15:11 24.66662 66.71367 13681 ft 358 kts 83°
2026-05-05 15:12 24.66843 66.74080 13215 ft 354 kts 83°
2026-05-05 15:12 24.67022 66.76767 12775 ft 351 kts 83°
2026-05-05 15:12 24.67200 66.79435 12343 ft 348 kts 83°
2026-05-05 15:12 24.67376 66.82082 11914 ft 346 kts 84°
2026-05-05 15:13 24.67550 66.84716 11460 ft 344 kts 83°
2026-05-05 15:13 24.67722 66.87326 11061 ft 340 kts 84°
2026-05-05 15:13 24.67887 66.89856 10924 ft 324 kts 84°
2026-05-05 15:13 24.68044 66.92264 10788 ft 309 kts 84°
2026-05-05 15:14 24.68194 66.94565 10672 ft 295 kts 84°
2026-05-05 15:14 24.68337 66.96758 10543 ft 282 kts 84°
2026-05-05 15:14 24.68475 66.98878 10417 ft 275 kts 84°
2026-05-05 15:14 24.68613 67.00975 10213 ft 274 kts 84°
2026-05-05 15:15 24.68752 67.03054 9921 ft 272 kts 83°
2026-05-05 15:15 24.69148 67.05136 9702 ft 286 kts 67°
2026-05-05 15:15 24.70052 67.07084 9581 ft 285 kts 58°
2026-05-05 15:15 24.71064 67.08944 9091 ft 284 kts 58°
2026-05-05 15:16 24.72089 67.10802 8665 ft 285 kts 58°
2026-05-05 15:16 24.73110 67.12666 8325 ft 284 kts 58°
2026-05-05 15:16 24.74124 67.14527 8005 ft 282 kts 59°
2026-05-05 15:16 24.75125 67.16369 7696 ft 279 kts 59°
2026-05-05 15:17 24.76103 67.18175 7505 ft 269 kts 59°
2026-05-05 15:17 24.77040 67.19909 7332 ft 258 kts 60°
2026-05-05 15:17 24.77942 67.21578 7063 ft 252 kts 60°
2026-05-05 15:17 24.78830 67.23225 6695 ft 250 kts 60°
2026-05-05 15:18 24.79713 67.24860 6366 ft 247 kts 60°
2026-05-05 15:18 24.80584 67.26475 6039 ft 243 kts 60°
2026-05-05 15:18 24.81441 67.28064 5730 ft 240 kts 60°
2026-05-05 15:18 24.82280 67.29622 5466 ft 240 kts 60°
2026-05-05 15:19 24.83128 67.31195 5210 ft 238 kts 61°
2026-05-05 15:19 24.83968 67.32756 4949 ft 237 kts 60°
2026-05-05 15:19 24.84808 67.34316 4694 ft 238 kts 60°
2026-05-05 15:19 24.85636 67.35853 4524 ft 228 kts 60°
2026-05-05 15:20 24.86447 67.37327 4272 ft 223 kts 58°
2026-05-05 15:20 24.87481 67.38577 3980 ft 221 kts 38°
2026-05-05 15:20 24.88856 67.39287 3737 ft 220 kts 13°
2026-05-05 15:20 24.90382 67.39316 3595 ft 223 kts 351°
2026-05-05 15:21 24.91889 67.38919 3516 ft 220 kts 345°
2026-05-05 15:21 24.93311 67.38431 3386 ft 208 kts 340°
2026-05-05 15:21 24.94498 67.37569 3286 ft 206 kts 314°
2026-05-05 15:21 24.95080 67.36159 3192 ft 203 kts 279°
2026-05-05 15:22 24.95180 67.34616 3086 ft 203 kts 266°
2026-05-05 15:22 24.94875 67.33112 2872 ft 200 kts 248°
2026-05-05 15:22 24.94443 67.31665 2610 ft 199 kts 251°
2026-05-05 15:22 24.94092 67.30200 2351 ft 196 kts 252°
2026-05-05 15:23 24.93736 67.28767 2075 ft 190 kts 251°
2026-05-05 15:23 24.93388 67.27409 1850 ft 178 kts 252°
2026-05-05 15:23 24.93067 67.26143 1638 ft 165 kts 254°
2026-05-05 15:23 24.92767 67.24963 1404 ft 154 kts 254°
2026-05-05 15:24 24.92495 67.23879 1241 ft 145 kts 254°
2026-05-05 15:24 24.92227 67.22835 1039 ft 139 kts 253°
2026-05-05 15:24 24.91967 67.21803 895 ft 142 kts 251°
2026-05-05 15:24 24.91723 67.20768 672 ft 138 kts 253°
2026-05-05 15:25 24.91461 67.19747 532 ft 140 kts 253°
2026-05-05 15:25 24.91192 67.18722 374 ft 140 kts 252°
2026-05-05 15:25 24.90932 67.17679 182 ft 141 kts 252°
2026-05-05 15:25 24.90670 67.16669 103 ft 125 kts 254°
2026-05-05 15:26 24.90473 67.15887 96 ft 86 kts 254°
2026-05-05 15:26 24.90348 67.15399 97 ft 46 kts 254°
2026-05-05 15:26 24.90266 67.15106 93 ft 38 kts 246°
2026-05-05 15:26 24.90139 67.14912 93 ft 20 kts 223°
2026-05-05 15:27 24.90052 67.14885 91 ft 11 kts 160°
2026-05-05 15:27 24.90037 67.14953 94 ft 11 kts 78°
2026-05-05 15:27 24.90059 67.15046 95 ft 14 kts 75°
2026-05-05 15:27 24.90087 67.15161 94 ft 17 kts 75°
2026-05-05 15:28 24.90121 67.15295 93 ft 20 kts 75°
2026-05-05 15:28 24.90159 67.15449 97 ft 22 kts 75°
2026-05-05 15:28 24.90203 67.15620 98 ft 24 kts 73°
2026-05-05 15:28 24.90250 67.15805 97 ft 26 kts 75°
2026-05-05 15:29 24.90299 67.16005 101 ft 28 kts 74°
2026-05-05 15:29 24.90353 67.16217 100 ft 25 kts 75°
2026-05-05 15:29 24.90393 67.16379 101 ft 23 kts 74°
2026-05-05 15:29 24.90440 67.16555 102 ft 25 kts 74°
2026-05-05 15:30 24.90487 67.16740 103 ft 24 kts 75°
2026-05-05 15:30 24.90528 67.16899 104 ft 18 kts 74°
2026-05-05 15:30 24.90550 67.16994 102 ft 11 kts 86°
2026-05-05 15:30 24.90496 67.17046 104 ft 12 kts 165°
2026-05-05 15:31 24.90406 67.17074 104 ft 13 kts 164°
2026-05-05 15:31 24.90333 67.17095 104 ft 7 kts 174°
2026-05-05 15:31 24.90295 67.17059 103 ft 8 kts 245°
2026-05-05 15:31 24.90289 67.17043 105 ft 3 kts 246°
2026-05-05 15:32 24.90281 67.17023 105 ft 2 kts 246°
2026-05-05 15:32 24.90280 67.17021 105 ft 0 kts 246°